Find Starlink 4525

NORAD ID: 53401 Int'l Des: 2022-097 Owner: SPXS Country: US Constellation: starlink operational
LEOCIRCULAR

当前视图

正在加载3D地球...

About Starlink 4525

Starlink 4525 (NORAD 53401) is a starlink constellation satellite (v1.5) launched Aug 10, 2022 by SPXS of US. It operates in LEO, CIRCULAR orbit with a mass of 297.00 kg.

关于 Starlink 4525

正在加载描述...

即将过境

Passes for default location (London). Set your location on the main map for personalized predictions.

高度历史

Loading altitude history...

两行轨道根数

1 53401U 22097P 26166.38705206 .00001025 00000-0 82462-4 0 9999
2 53401 53.1607 45.4561 0001401 88.6669 271.4483 15.08836043213262
Epoch: Jun 15, 2026 • Age: 13 hours

当前状态

高度 544.0 km
速度 7.60 km/s
星下点 47.14°N, 142.27°W
发射日期 Aug 10, 2022
运行时间 3.8 years
类型 internet

技术详情

分类 Payload
质量 297.00 kg
干质量 275.00 kg
总质量 297.00 kg
长度 0.20 m
直径 2.80 m
跨度 9.00 m
形状 Box + pan
制造商 SPXS
平台类型 Starlink
阶段状态 In Orbit
所有者/国家 SPXS/US

Most Searched